Temp
31 30 29 28 27 27 28 27 27 27 26 24 24 24 24 23 23 23 22 22 21 21 21 20 19 19 21 21 21 22 22 21 24 22 22 20 19 18 18 18 19 20 19
31 30 29 28 28 28 28 27 27 26 25 24 24 24 23 23 23 23 23 22 21 21 20 20 20 20 20 20 21 19 19 20 20 21 20 21 20 19 18 18 18 20 20
31 30 30 29 28 29 28 28 27 25 25 24 23 23 23 23 22 22 22 21 21 20 20 20 19 19 19 19 19 20 20 20 20 20 21 21 20 19 18 19 19 19 20
32 30 30 29 29 29 29 28 27 25 25 24 24 23 23 23 22 22 22 21 20 20 20 19 19 19 18 19 19 19 18 19 20 20 20 20 20 19 19 19 19 19 19
31 31 30 29 29 29 29 27 26 25 24 24 24 23 23 23 23 22 22 21 20 20 19 19 19 18 18 17 18 17 18 18 19 19 20 20 19 17 18 18 18 19 19
30 30 30 29 28 28 27 26 25 24 24 23 23 23 23 24 23 22 21 20 20 19 19 19 19 18 18 17 17 17 16 16 16 17 18 18 18 17 18 17 17 18 19
30 29 29 28 27 27 26 24 22 23 22 21 21 21 22 21 21 21 20 21 20 20 20 20 20 19 19 19 17 16 16 16 16 15 16 17 17 17 16 16 17 16 17
29 29 28 27 26 24 23 22 23 23 25 18 21 20 20 19 20 20 20 20 21 19 20 19 19 19 18 17 17 18 18 18 17 16 17 17 17 17 15 16 16 15 16
28 28 27 24 21 20 20 18 19 20 21 20 21 20 18 18 19 20 20 20 20 19 19 19 19 18 17 17 16 18 18 18 19 18 17 17 17 17 16 15 16 18 18
28 25 22 23 22 22 23 24 19 19 20 19 19 19 19 19 19 20 19 20 18 19 19 18 18 17 17 17 16 17 18 19 18 18 17 17 18 18 18 16 17 17 17
22 21 22 22 23 24 21 21 19 18 19 18 18 18 17 19 19 19 19 19 20 20 21 21 20 18 18 17 17 16 17 16 16 16 18 19 20 20 20 16 15 16 15
21 21 21 22 20 20 20 19 18 18 18 18 17 17 18 18 18 18 18 18 19 20 21 21 19 18 18 17 17 17 16 16 17 18 19 20 20 20 17 16 15 15 15
22 22 22 21 20 20 19 18 17 17 18 18 18 17 15 17 17 18 18 18 18 18 20 19 18 18 18 18 18 18 17 17 19 19 19 19 18 17 17 16 16 15 15
21 22 22 22 21 20 19 19 18 17 19 19 19 18 19 19 17 17 17 17 17 17 18 19 18 18 19 19 19 18 18 19 19 19 18 17 17 16 16 16 15 14 14
21 22 23 23 20 19 19 19 19 19 20 21 21 21 21 20 19 19 18 19 20 19 19 20 20 21 21 21 21 21 20 20 19 19 17 17 16 15 15 15 13 13 12
23 24 24 23 19 19 18 18 19 19 20 21 21 22 21 21 20 19 19 19 19 19 19 20 21 21 21 21 21 21 20 20 19 18 17 16 15 15 15 14 14 13 13
25 25 23 20 19 19 20 21 18 18 19 20 20 20 20 19 19 19 19 19 19 19 19 20 21 21 21 21 20 20 20 19 18 18 16 15 15 15 15 15 14 14 13
23 22 20 19 18 19 21 22 20 19 20 18 18 18 19 19 18 18 19 18 18 19 19 21 21 22 21 21 20 19 19 18 18 17 15 14 15 15 15 15 14 13 13
23 21 21 21 19 21 22 22 22 21 21 20 17 17 18 18 18 18 18 19 21 22 22 22 21 21 20 19 19 18 17 17 15 15 14 14 14 14 15 14 12 11 11
20 21 22 21 19 19 20 20 22 23 23 21 20 20 17 17 18 18 18 19 21 22 22 21 21 20 19 18 18 17 17 16 14 13 12 13 14 14 14 14 11 12 12
20 19 20 20 18 19 20 22 24 24 23 21 22 21 19 20 21 22 22 21 22 22 21 20 19 19 19 18 17 17 16 14 13 11 11 13 14 14 14 12 11 12 12
19 19 18 20 18 21 22 24 24 24 23 23 22 21 20 21 23 23 23 23 22 21 20 19 19 18 18 17 16 16 13 11 11 10 11 13 14 14 13 12 12 12 12
17 17 17 17 18 20 22 24 24 24 23 21 20 21 21 22 23 23 23 22 21 20 19 19 18 17 17 16 14 12 11 10 9 9 11 13 14 13 13 12 12 12 13
16 16 16 17 17 18 21 23 24 22 21 21 23 22 22 22 23 23 22 21 20 19 19 18 17 16 15 13 12 10 9 8 8 9 10 12 13 13 13 12 12 13 12
16 16 16 16 17 19 21 23 22 21 21 23 24 24 23 23 23 22 21 20 19 19 18 17 17 15 13 11 9 9 9 9 9 8 9 11 12 12 12 12 13 13 14
16 16 15 17 18 19 20 20 20 20 21 21 23 23 23 23 22 21 20 19 19 19 17 17 15 13 12 12 10 10 10 10 9 9 9 8 10 12 13 12 13 14 15
Height
768 772 776 779 783 786 789 792 794 796 799 801 803 806 810 814 816 816 817 819 822 824 824 825 826 826 825 824 822 822 822 822 816 817 820 822 823 822 821 819 817 815 812
762 767 771 775 778 781 783 786 790 792 795 798 801 802 805 808 811 813 815 816 819 822 824 825 825 827 826 824 824 825 824 825 823 821 822 821 822 821 821 819 817 814 813
758 762 766 769 772 773 775 776 780 784 788 792 796 799 800 802 805 808 812 816 818 820 823 825 827 828 829 828 827 825 825 824 824 822 821 821 821 820 820 817 815 814 811
751 756 758 760 760 761 764 771 778 784 788 791 794 796 799 798 800 804 810 812 817 819 821 824 826 829 830 830 828 828 827 825 822 820 819 820 819 819 820 818 814 811 811
745 748 749 752 757 763 767 772 777 781 784 787 791 794 798 800 805 803 805 808 813 817 820 823 825 827 830 830 829 829 829 827 825 822 819 819 820 821 819 818 815 811 808
736 739 746 751 754 758 763 770 776 782 787 779 785 792 797 797 799 807 806 810 811 815 819 822 824 825 827 829 829 828 829 829 829 827 824 824 822 822 820 819 817 812 808
731 736 739 742 748 755 761 766 772 778 786 776 791 790 809 795 798 802 807 810 811 813 818 819 822 824 826 827 825 825 825 826 826 826 826 825 824 822 820 818 816 815 811
727 732 737 743 748 753 758 767 770 765 769 769 784 788 803 806 801 797 805 810 810 811 816 819 822 823 824 826 824 823 823 823 821 822 820 820 819 818 817 816 814 812 809
728 733 738 743 749 759 772 782 775 781 780 781 784 782 790 802 796 797 803 806 808 810 810 818 820 822 823 823 823 823 822 822 819 817 818 817 815 812 809 810 809 806 802
726 730 736 743 751 759 765 758 766 777 775 777 780 782 790 795 796 798 802 803 806 809 810 816 818 821 822 821 821 820 819 819 817 815 814 810 806 802 800 801 803 802 800
728 734 741 745 747 747 750 748 762 774 770 778 781 784 792 792 795 798 802 806 808 808 810 811 813 817 819 818 819 818 816 814 814 813 807 801 799 796 792 795 800 801 800
733 739 745 747 749 752 754 759 759 766 777 781 784 788 789 790 793 797 802 805 807 808 809 810 813 815 816 817 816 816 815 813 810 808 803 798 795 795 795 796 797 797 797
738 743 747 750 750 751 752 756 753 761 777 781 784 786 789 792 794 798 803 805 807 808 810 811 813 814 815 814 810 809 808 808 804 802 802 799 797 796 795 793 794 793 793
739 743 746 749 751 754 757 758 759 759 771 777 780 786 790 794 796 798 802 804 806 806 808 810 809 811 810 807 806 804 803 802 801 800 799 799 797 796 795 793 792 792 791
740 742 744 747 752 753 756 757 759 760 769 774 777 782 783 788 793 795 799 800 802 804 806 807 805 805 803 801 801 799 799 797 798 797 797 796 796 795 793 792 793 793 792
739 740 741 745 750 752 755 758 759 763 767 772 774 777 780 784 790 795 796 798 800 804 806 806 804 803 800 797 799 796 796 795 795 795 795 795 795 793 791 792 792 791 788
737 737 740 744 748 752 756 755 759 763 768 772 775 778 781 785 790 795 795 797 799 801 803 802 800 797 797 797 796 795 796 794 794 793 795 795 794 791 790 789 788 787 785
736 736 741 743 747 751 752 753 759 763 768 773 777 780 783 786 789 792 796 797 799 799 799 797 792 791 792 794 794 794 796 794 793 792 793 793 792 790 788 786 785 786 784
733 735 738 740 745 748 749 754 757 760 765 770 776 779 782 787 789 793 794 795 792 791 791 791 791 793 792 793 793 794 795 793 794 792 792 792 789 788 786 785 785 786 784
732 733 735 737 740 745 748 752 752 754 761 766 772 777 783 786 789 792 794 794 792 789 786 791 792 792 792 791 792 793 792 791 792 791 791 789 787 786 784 783 784 782 780
731 732 733 737 738 741 743 745 747 750 758 764 765 772 780 782 784 785 784 787 787 785 786 790 792 791 789 789 790 791 790 790 791 790 789 788 785 784 783 782 782 780 777
729 731 733 733 735 737 739 739 742 747 755 759 763 770 776 779 778 779 780 782 783 787 789 791 791 790 788 790 789 789 789 790 789 788 787 785 782 781 781 780 779 777 773
727 728 730 731 734 735 735 736 739 745 754 760 763 768 774 777 775 776 777 780 784 788 790 791 790 790 789 790 789 790 789 788 787 787 786 783 782 780 779 778 776 773 769
725 726 727 729 732 733 735 736 738 747 754 757 759 763 771 774 773 774 777 780 784 787 788 789 789 789 789 789 788 788 787 786 786 786 785 783 781 779 777 776 773 769 766
722 724 726 727 730 732 733 733 742 750 753 753 756 760 766 768 770 775 779 782 785 786 787 788 789 789 790 789 788 786 784 784 783 783 782 782 780 778 776 773 770 766 760
719 721 723 725 728 730 731 738 745 751 751 754 758 760 763 766 770 774 779 782 785 786 788 788 788 789 790 789 787 785 784 783 783 782 780 779 778 776 774 772 767 761 755
Wind_Speed
24 24 22 21 20 19 19 17 16 15 15 16 16 14 12 9 6 4 5 6 5 6 6 6 6 7 6 6 6 7 7 8 8 11 6 7 8 9 10 10 8 7 8
24 23 22 20 20 19 20 19 18 19 19 18 18 18 16 13 11 8 5 6 5 4 4 4 4 4 3 4 5 7 8 9 10 6 6 7 8 9 11 11 9 9 9
23 23 22 22 22 22 23 24 25 25 24 22 22 21 21 18 15 12 9 7 6 5 4 4 4 4 6 6 8 8 8 5 6 7 8 7 9 6 12 10 9 9 9
24 24 25 26 27 28 28 26 24 24 23 23 22 22 21 20 18 14 11 9 7 6 5 5 4 2 2 3 4 3 7 9 7 8 9 9 8 12 10 11 12 9 11
24 25 28 28 25 22 20 23 23 24 25 25 24 23 20 17 15 16 13 12 10 8 6 4 4 3 3 2 4 6 7 10 11 10 10 9 10 12 11 11 12 10 13
29 28 24 22 22 22 20 20 19 17 20 27 27 24 19 15 22 16 13 11 11 9 6 3 1 6 6 5 6 6 8 6 8 10 10 10 8 11 12 12 14 12 9
25 24 24 25 22 20 20 20 22 5 8 7 4 5 8 18 18 17 14 11 10 9 5 2 4 7 2 6 7 7 7 5 7 7 9 10 12 12 13 13 13 13 15
23 22 22 21 20 23 28 24 13 23 21 37 27 26 21 13 18 20 15 11 10 8 4 2 1 3 4 6 5 7 7 7 10 8 11 14 13 16 15 16 17 17 18
20 19 19 17 23 28 18 7 3 8 13 26 30 26 22 20 20 21 16 13 11 10 9 3 2 4 5 5 2 4 5 7 10 13 14 15 20 20 17 13 13 15 14
19 20 25 26 29 24 13 8 22 19 22 19 22 22 22 24 21 22 18 14 14 11 7 6 5 3 4 3 3 5 8 11 12 15 17 19 24 23 22 23 14 13 14
22 24 28 31 31 25 14 14 18 21 29 23 22 22 21 23 23 19 15 13 9 7 7 8 9 5 5 6 8 9 12 14 17 19 19 19 16 17 15 17 11 10 18
20 22 22 20 8 3 8 16 22 22 19 20 21 19 22 23 21 17 15 10 7 6 4 3 6 5 8 10 13 15 16 18 16 18 19 17 16 16 8 3 7 11 15
18 18 14 8 10 11 15 17 21 22 18 19 18 15 13 17 15 16 16 13 10 5 5 1 5 8 12 14 14 15 16 12 12 15 18 18 16 17 16 11 8 10 10
14 15 6 5 8 14 15 15 16 22 20 18 17 16 17 15 13 14 14 13 12 9 8 11 10 10 15 18 18 17 15 14 15 15 14 11 13 13 15 15 15 15 17
14 12 11 9 13 15 12 13 17 21 21 20 17 18 19 14 17 17 16 14 12 10 8 8 7 12 13 13 12 13 14 14 15 13 9 11 12 12 12 12 12 10 9
12 10 10 8 13 13 14 12 15 21 18 14 16 16 13 11 17 20 12 7 4 5 5 8 10 13 13 13 14 14 14 13 12 9 13 10 13 13 10 9 7 9 10
10 5 7 12 14 16 18 17 14 13 15 14 13 10 16 11 19 16 14 12 11 8 7 11 12 11 12 13 14 14 15 12 10 10 7 11 13 11 8 9 8 10 11
9 9 11 14 17 20 20 19 21 18 17 13 13 15 14 13 14 14 14 11 6 10 14 12 10 8 10 12 13 13 14 13 13 7 9 12 13 11 11 11 9 10 12
12 9 15 16 19 21 19 19 19 20 19 19 15 16 15 16 16 14 13 8 7 8 8 7 8 11 11 11 11 12 12 10 10 11 10 12 12 10 11 10 6 10 12
12 13 17 17 22 20 21 21 20 20 19 19 20 18 18 17 13 12 11 9 10 11 5 6 9 9 10 10 11 11 13 9 8 10 11 12 10 10 10 8 8 11 12
10 13 17 16 18 23 25 23 21 19 19 20 19 20 21 19 17 15 16 14 10 4 5 6 9 8 9 9 11 13 14 8 10 9 8 10 11 10 10 5 11 13 14
10 12 17 15 20 26 23 20 21 19 21 19 18 19 24 19 15 10 7 5 3 2 4 5 7 8 9 10 12 13 9 8 9 7 8 13 10 9 9 10 12 14 18
9 12 14 11 17 23 18 15 19 21 19 22 25 21 20 18 12 9 6 3 1 2 3 5 6 7 8 11 9 10 9 7 6 6 8 11 10 9 9 12 14 16 18
9 10 16 18 19 20 18 19 20 21 24 22 19 17 19 17 13 6 4 3 2 1 3 4 6 7 10 8 9 6 6 6 6 7 10 10 10 10 10 12 15 17 21
10 10 13 16 15 21 19 19 21 24 23 19 15 17 18 15 8 7 4 3 2 2 2 3 5 8 8 6 4 4 8 7 6 7 7 8 10 11 12 14 19 18 23
10 13 15 20 21 11 18 20 19 16 18 12 12 13 12 11 8 7 5 4 2 1 2 4 5 7 4 4 5 6 6 7 6 5 7 8 10 11 13 16 19 23 21
Wind_Direction
203 198 200 203 205 207 210 211 210 195 185 180 177 169 164 163 156 133 79 91 73 54 49 51 36 18 19 24 27 23 18 350 323 19 37 12 4 353 342 334 326 305 317
199 197 196 200 201 202 205 206 203 195 189 185 181 172 168 167 163 157 166 132 112 84 68 71 56 32 27 40 55 43 36 19 3 0 10 341 1 334 343 321 329 313 316
198 198 198 198 200 203 203 204 197 193 188 185 182 177 174 172 169 168 152 141 130 119 111 92 78 47 34 40 34 11 23 8 12 341 322 343 338 3 336 329 329 306 309
198 200 200 201 203 205 202 200 196 194 190 186 187 182 180 175 170 160 152 146 145 129 118 116 105 74 49 23 35 340 35 334 354 339 335 344 350 1 333 336 330 331 321
198 202 206 205 206 207 199 195 193 193 193 187 186 182 180 175 176 161 157 153 148 139 129 138 145 155 220 273 346 5 339 340 340 342 333 347 352 346 338 334 327 341 329
198 205 203 201 200 199 192 186 187 196 211 184 184 179 176 175 159 159 153 152 148 144 142 142 196 243 233 259 292 300 300 321 321 334 332 348 350 328 338 338 315 344 323
196 198 195 193 191 187 172 165 141 1 61 161 250 142 204 146 162 166 154 151 149 140 148 148 275 100 324 301 286 271 293 278 294 286 294 304 312 318 312 308 318 318 311
188 190 186 186 183 156 149 133 115 145 191 181 200 169 203 179 160 150 151 145 138 142 149 141 269 331 302 311 309 281 287 280 259 252 265 283 293 300 298 287 291 286 280
188 186 180 158 128 135 122 31 354 227 192 197 188 166 161 169 156 148 148 152 151 158 146 183 200 287 273 307 314 293 307 299 296 271 272 284 298 294 275 273 272 285 281
183 155 148 151 149 147 173 203 270 217 213 196 164 149 175 166 159 153 153 155 160 166 144 189 241 219 257 246 257 295 295 302 314 306 299 291 281 278 261 242 254 282 293
146 148 154 160 172 185 189 159 160 151 144 146 146 157 170 161 163 162 158 169 171 165 223 200 183 205 241 253 269 271 277 292 302 300 292 294 302 303 327 227 235 282 293
154 156 166 179 197 230 148 136 131 132 145 151 152 157 163 173 171 165 173 181 180 185 244 248 156 235 258 278 287 292 286 294 299 290 296 314 313 316 43 91 262 272 282
163 168 162 216 230 195 160 159 141 145 165 167 162 159 165 170 175 183 185 189 185 194 250 265 237 260 284 290 287 280 285 281 292 311 323 313 346 348 340 335 344 305 293
172 181 188 183 173 174 167 161 158 154 175 172 170 170 172 181 182 184 195 204 216 226 248 248 244 262 269 265 264 273 259 273 314 306 296 322 330 326 318 327 330 327 320
183 202 214 196 178 170 171 176 175 174 178 181 180 183 181 182 190 188 192 202 210 211 222 243 245 274 287 298 299 310 311 308 309 309 323 327 316 316 312 321 327 325 311
201 194 192 192 181 172 163 157 174 184 202 186 178 190 169 183 181 191 200 196 176 168 215 259 281 291 297 306 314 316 310 311 310 323 319 320 314 308 317 319 305 303 306
219 219 196 182 174 173 182 167 145 147 173 178 184 167 157 158 171 189 200 200 201 212 242 267 277 291 303 313 312 317 312 319 315 299 310 306 303 301 304 295 289 295 303
225 177 184 177 174 185 194 181 171 164 168 164 169 167 165 179 179 179 174 178 198 234 240 255 257 308 309 317 320 314 314 313 316 308 308 301 294 299 304 301 312 318 309
216 196 196 183 190 209 189 181 177 175 174 165 160 166 171 171 167 171 181 206 248 274 267 282 325 316 324 320 319 314 308 315 322 307 305 293 292 299 296 304 315 305 294
220 224 200 189 183 189 182 189 194 179 170 164 167 165 165 163 168 191 208 225 239 250 284 325 320 322 314 315 310 304 300 314 327 314 299 283 287 289 302 311 308 299 298
224 214 203 204 181 192 184 199 194 171 173 173 170 169 173 178 191 202 203 199 227 265 8 325 319 312 310 315 318 311 300 326 311 302 285 277 286 298 304 298 302 292 289
213 210 208 204 184 191 201 197 174 171 181 171 161 177 176 202 211 206 210 206 205 153 308 321 312 324 331 326 316 316 334 307 296 295 283 283 294 298 301 298 296 293 285
212 208 204 198 194 209 216 198 173 169 167 170 176 162 183 203 216 217 194 186 104 281 325 318 327 328 330 325 331 318 307 297 281 290 286 299 302 305 304 303 303 298 300
205 203 207 203 211 227 221 198 168 164 171 183 196 161 186 202 215 177 162 161 175 252 311 331 330 335 331 331 323 313 308 297 284 285 292 299 300 305 308 307 302 305 307
195 197 201 202 204 221 205 169 158 172 182 193 172 171 182 188 182 142 182 161 178 285 330 334 344 340 341 344 346 339 300 310 292 270 291 296 299 304 303 305 307 314 304
186 189 190 185 184 159 142 155 163 175 162 166 194 179 171 176 166 161 145 171 211 167 344 357 6 4 16 29 9 23 24 11 352 318 295 295 300 308 314 318 313 309 319